Location: Bush Observatory
(40.2653°N, 94.3194°W)
Time: 16:21:11
(UTC-05:00)

Daily predictions for brighter satellites

Satellite Brightness Start Highest point End
(mag) Time Altitude Azimuth Time Altitude Azimuth Time Altitude Azimuth
SL-16 R/B 2.4 20:56:20 10° NNW 21:01:58 58° ENE 21:07:32 10° SE
BREEZE M DEB (TANK) 4.3 20:49:41 10° WNW 21:04:31 61° NNE 21:08:44 10° E
Cosmos 841 Rocket 4.2 21:01:06 10° SSE 21:05:46 34° E 21:10:29 10° NE
Cosmos 2233 Rocket 4.0 21:02:06 10° S 21:08:10 66° E 21:14:19 10° NNE
ATLAS CENTAUR R/B 4.0 21:08:05 10° SW 21:13:53 81° SE 21:31:55 10° NE
ELECTRON R/B 4.5 21:12:34 10° N 21:15:00 57° E 21:17:30 10° SSE
CZ-4C R/B 4.4 21:09:27 10° NNW 21:15:01 24° NE 21:21:06 10° E
Resurs 01 Rocket 1.6 21:10:39 10° SSE 21:15:02 84° ENE 21:19:28 10° NNW
Cosmos 1340 Rocket 3.9 21:13:01 10° SSE 21:16:26 27° E 21:19:53 10° NE
USA 234 3.5 21:11:01 10° ENE 21:17:18 47° SE 21:23:34 10° SSW
NOSS 3-2 (A) 4.5 21:12:12 10° SW 21:17:57 52° NW 21:24:22 10° NNE
NOSS 3-2 (C) 4.0 21:19:26 10° SW 21:25:17 64° NW 21:31:48 10° NNE
Meteor 1-13 Rocket 4.4 21:23:02 10° S 21:28:49 62° E 21:34:41 10° NNE
ERS-2 2.8 21:26:29 10° S 21:30:05 54° WSW 21:33:43 10° NNW
ERS-1 Rocket 4.2 21:27:39 11° ESE 21:31:34 26° ENE 21:35:41 10° NNE
SAR-Lupe-3 4.5 21:32:02 10° NNE 21:35:39 81° ESE 21:39:13 10° S
CENTAUR R/B 2.4 21:31:47 10° SSW 21:37:37 75° ESE 21:44:22 10° NE
Cosmos 1666 3.4 21:34:01 10° NNW 21:37:50 56° W 21:41:36 10° S
Cosmos 2360 Rocket 2.7 21:33:56 10° NNW 21:39:23 48° ENE 21:43:55 15° SE
Cosmos 2219 Rocket 4.1 21:38:06 10° N 21:41:33 16° NE 21:45:00 10° E
Cosmos 1980 Rocket 4.4 21:37:29 10° NW 21:41:37 21° W 21:45:46 10° SSW
Cosmos 1356 3.8 21:40:32 11° SSE 21:43:39 42° E 21:46:57 10° NNE
Cosmos 1898 Rocket 4.3 21:40:37 10° NNW 21:45:46 52° WSW 21:50:55 10° S
Cosmos 1814 Rocket 4.3 21:42:32 10° SSW 21:47:46 73° WNW 21:53:06 10° NNE
MetOp-A 4.3 21:43:50 13° SSE 21:48:29 58° ENE 21:53:44 10° N
Aureole 2 Rocket 1.8 21:47:04 10° NNW 21:49:57 74° ENE 21:51:29 23° SSE
Cosmos 990 Rocket 4.5 21:49:51 10° NNW 21:55:00 60° WSW 22:00:06 10° S
Meteor 2-9 Rocket 4.1 21:50:19 10° N 21:55:42 89° W 22:00:55 11° S
Cosmos 1743 4.2 21:52:32 10° NNW 21:56:02 35° W 21:59:31 10° SSW
Iridium 2 4.2 21:53:40 10° SSW 21:57:26 59° W 22:01:15 10° N
Cosmos 1455 Rocket 3.0 21:53:34 10° N 21:57:58 81° E 22:01:29 16° S
Cosmos 1125 Rocket 4.3 21:54:13 10° N 21:59:03 36° ENE 22:02:08 19° ESE
Cosmos 2034 Rocket 4.2 21:54:59 12° SSE 22:00:27 51° E 22:06:23 10° NNE
H-2A R/B 2.1 21:57:46 18° SSE 22:01:22 61° ENE 22:06:22 10° N
GPS 2-05 Rocket1 3.7 21:58:51 10° SW 22:01:44 28° SSE 22:02:11 27° SSE
Cosmos 1464 Rocket 4.0 21:56:09 10° S 22:02:30 75° E 22:08:52 10° N
USA 245 4.1 22:00:38 23° ESE 22:02:33 39° ENE 22:06:48 10° N
Helios 1A 4.1 22:00:58 20° ESE 22:02:54 28° ENE 22:06:28 10° N
BREEZE-M DEB (TANK) 4.0 22:04:45 10° W 22:07:00 27° SSW 22:08:59 19° SSE
Cosmos 1356 Rocket 4.4 22:07:09 24° SE 22:08:37 30° E 22:12:24 10° NNE
Cosmos 2333 Rocket 3.7 22:07:50 10° N 22:12:30 25° NE 22:15:46 16° E
Cosmos 836 Rocket 4.5 22:07:52 10° S 22:12:58 61° ESE 22:18:06 10° NNE
COSMOS 2428 3.5 22:10:19 10° N 22:15:38 39° ENE 22:18:42 22° ESE
Meteor 1-23 Rocket 4.1 22:12:54 10° S 22:18:28 85° E 22:24:04 10° N
Cosmos 1515 3.9 22:19:18 15° SSW 22:22:27 70° W 22:26:17 10° N
Terra 3.2 22:21:33 20° E 22:23:18 25° ENE 22:27:08 10° NNE
ARGOS 3.4 22:19:05 16° S 22:23:20 67° WSW 22:28:45 10° NNW
Helios 1B rocket 3.2 22:20:14 10° NNE 22:23:59 32° E 22:24:34 31° ESE
Cosmos 1544 Rocket 4.4 22:21:16 10° NNW 22:25:33 48° W 22:29:02 15° SSW
Cosmos 540 Rocket 3.6 22:20:38 10° SSW 22:25:47 76° WNW 22:31:00 10° NNE
Shenzhou-11 Module 2.8 22:23:21 10° W 22:26:08 35° SSW 22:26:08 35° SSW
DMSP B5D2-2 4.1 22:21:17 10° NNE 22:26:31 60° E 22:29:45 23° S
SPOT 5 3.0 22:26:23 32° SE 22:28:09 52° ENE 22:32:39 10° N
Cosmos 2297 Rocket 4.0 22:29:01 14° E 22:29:01 14° E 22:31:09 10° ENE
Lacrosse 5 rocket 1.4 22:27:29 10° NW 22:31:46 70° SW 22:33:08 40° SSE
Cosmos 2227 Rocket 3.8 22:32:28 17° E 22:32:28 17° E 22:35:39 10° ENE
SJ 16-02 1.3 22:29:19 10° NNW 22:33:47 85° WSW 22:35:38 35° SSE
Tiangong 2 1.5 22:31:15 10° WNW 22:34:23 59° N 22:35:15 40° ENE
Cosmos 2322 Rocket 4.0 22:30:15 10° NW 22:34:42 25° WSW 22:39:09 10° SSW
IGS 5A 4.4 22:35:34 30° E 22:36:29 34° ENE 22:40:15 10° N
Cosmos 2322 3.7 22:31:30 10° NNW 22:37:15 80° WSW 22:40:13 30° SSE
Cosmos 2237 Rocket 3.8 22:34:45 10° N 22:39:12 23° NE 22:41:55 17° E
ISS -0.6 22:40:10 10° NNW 22:41:19 11° N 22:42:29 10° NNE
Cosmos 1536 Rocket 4.4 22:38:24 11° SSW 22:42:25 48° W 22:46:46 10° N
SL-16 R/B 4.3 22:41:41 10° WNW 22:45:32 19° W 22:49:22 10° SW
Cosmos 1066 Rocket 4.1 22:44:56 33° SSE 22:47:19 67° E 22:52:46 10° NNE
Okean 1-7 Rocket 4.0 22:48:21 43° ESE 22:49:04 47° E 22:53:26 10° NNE
Cosmos 1544 3.5 22:47:56 10° N 22:51:32 46° E 22:51:33 46° E
Cosmos 372 Rocket 4.2 22:50:57 10° NNW 22:56:00 62° WSW 22:58:00 35° S
USA 234 4.0 22:54:00 10° NE 23:00:19 53° NW 23:06:39 10° WSW
Cosmos 192 4.4 23:00:54 50° SE 23:01:41 56° ESE 23:06:29 10° NNE
CZ-4C R/B 2.9 22:57:13 10° NNW 23:04:33 85° ENE 23:08:19 36° SE
Cosmos 2219 3.1 23:02:08 27° SSW 23:05:25 83° ESE 23:11:12 10° NNE
DELTA 2 R/B (1) 3.6 23:00:29 10° SW 23:05:53 54° SSE 23:07:30 40° ESE
Cosmos 1092 Rocket 4.0 23:02:09 10° N 23:08:32 89° E 23:11:07 39° S
Nadezhda 4 Rocket 4.3 23:02:43 10° NNW 23:08:58 62° W 23:12:19 28° SSW
Cosmos 2058 Rocket 4.0 23:05:45 10° N 23:09:53 34° ENE 23:10:02 34° E
ERS-1 Rocket 4.1 23:07:39 22° SSW 23:10:10 36° W 23:14:47 10° NNW
Cosmos 1766 3.7 23:09:18 10° N 23:12:58 48° ENE 23:12:58 48° ENE
CARTOSAT-1 3.4 23:13:06 68° SSE 23:13:38 90° ENE 23:17:58 10° NNW
NOSS 0 Rocket 4.1 23:10:29 10° NNW 23:16:41 62° ENE 23:18:39 42° ESE
Meteor 1-22 Rocket 4.0 23:11:41 10° N 23:17:01 69° E 23:18:04 54° SE
CZ-2C R/B 3.0 23:12:58 10° NNE 23:18:22 46° E 23:18:57 44° ESE
Cosmos 1025 Rocket 4.1 23:17:05 26° SW 23:19:00 42° WNW 23:23:10 10° N
Cosmos 2360 Rocket 3.9 23:18:41 10° NW 23:23:01 23° W 23:25:42 16° SW
Cosmos 2219 Rocket 2.1 23:20:35 10° NNW 23:26:12 80° WSW 23:27:26 55° S
Cosmos 1538 Rocket 3.9 23:28:54 62° SE 23:29:15 63° ESE 23:34:26 10° NNE
Meteor 1-29 3.9 23:27:43 10° N 23:31:02 44° WNW 23:31:02 44° WNW
Cosmos 1606 Rocket 3.5 23:28:36 10° NNW 23:33:04 75° W 23:33:18 72° SW
CZ-2C R/B 3.1 23:32:01 59° SSE 23:33:08 88° ENE 23:38:49 10° NNW
ERBS 4.5 23:31:45 10° NNW 23:34:21 20° NE 23:34:27 20° NE
Cosmos 2026 Rocket 3.8 23:29:26 10° N 23:35:36 89° W 23:37:10 53° S
Cosmos 2279 Rocket 3.9 23:37:52 54° SSE 23:39:19 75° E 23:45:31 10° N
H-2A R/B 4.3 23:38:35 10° WSW 23:41:14 14° W 23:43:55 10° WNW
Cosmos 1842 3.8 23:45:49 57° N 23:45:49 57° N 23:49:00 10° N
Cosmos 1805 3.7 23:42:08 10° N 23:45:23 59° N 23:45:23 59° N
Intercosmos 25 3.6 23:47:03 66° N 23:47:03 66° N 23:50:01 10° N
Cosmos 2084 Rocket 4.0 23:44:03 10° NNW 23:47:25 49° NNE 23:47:25 49° NNE
Mayak 1.0 23:44:53 10° NE 23:46:22 16° ENE 23:46:22 16° ENE
Cosmos 1655 Rocket 4.0 23:43:46 10° N 23:50:10 78° E 23:51:26 59° SSE
Cosmos 1470 4.4 23:49:40 10° NNE 23:52:05 26° NE 23:52:05 26° NE
